Regional Weather Roundup
Issued by NWS Pendleton, OR

Home | Current Version | Previous Version | Text Only | Print | Product List | Glossary On
Versions: 1 2 3 4 5 6 7 8 9 10 11 12 13 14 15 16 17 18 19 20 21 22 23 24 25 26 27 28 29 30 31 32 33 34 35 36 37 38 39 40 41 42 43 44 45 46 47 48 49 50
000
ASUS46 KPDT 031025
RWRPDT
PENDLETON REGIONAL WEATHER ROUNDUP
NATIONAL WEATHER SERVICE PENDLETON OREGON
300 AM PDT MON AUG 3 2015

NOTE: FAIR INDICATES FEW OR NO CLOUDS BELOW 12,000 FEET WITH NO
SIGNIFICANT WEATHER AND/OR OBSTRUCTIONS TO VISIBILITY.

# INDICATES UNOFFICIAL STATION AND DATA

WAZ520-031110-
EAST SLOPES OF WASHINGTON CASCADES

CITY            SKY/WX      TMP DP  RH  WIND    PRES   REMARKS
#BULLFROG 2SW   N/A         68  44  42  S2      27.51S
#BUMPING DAM    N/A         61  N/A N/A CALM    N/A
#CLE ELUM HS    N/A         73  44  35  W5      29.82S
#CLE ELUM LAKE  N/A         68  43  40  CALM    29.72S
#CLIFFDEL 2NW   N/A         65  40  40  N1      N/A
#GLENWOOD       N/A         55  50  83  CALM    29.77F
#MANASTASH CYN  N/A         64  36  35  CALM    29.88F
#NELSON         N/A         71  47  42  CALM    29.77F
#NELSON 3SW     N/A         64  41  43  CALM    29.92F
#NILE           N/A         72  43  35  W1      29.07S
#RONALD 2NW     N/A         69  45  42  N1      29.80F
#SNOWDEN        N/A         63  36  36  CALM    N/A
#TEANAWAY 4NE   N/A         66  46  48  W2      N/A
#TROUT LAKE 1NE N/A         60  48  64  CALM    29.76F
$$

WAZ521-031110-
SIMCOE HIGHLANDS

CITY            SKY/WX      TMP DP  RH  WIND    PRES   REMARKS
#BICKLETON HS   N/A         76  25  15  NW7     N/A
#CENTERVILLE 4W N/A         72  48  43  CALM    29.57F
#CENTERVILLE 1SWN/A         70  49  47  W3      29.68F
#GOLDENDALE     N/A         69  47  45  S1      N/A
#GOLDENDALE 1NE N/A         62  34  35  CALM    N/A
#GOLDENDALE 5WNWN/A         68  50  53  W3      29.71F
#GOODNOE HILLS  N/A         72  49  44  W7      N/A
#LYLE 6NE       N/A         70  52  53  SW7     29.72F
$$

WAZ026-031110-
KITTITAS VALLEY

CITY            SKY/WX      TMP DP  RH  WIND    PRES   REMARKS
ELLENSBURG AP   MOCLDY      77  42  29  NW16    29.82S
YTC-OPS AREA    N/A         75  27  17  W30G35  29.83F
#ELLENSBURG CWU N/A         75  44  33  W7      29.67F
#ELLENSBURG 3NE N/A         75  45  34  N7      29.82F
#ELLENSBURG 1E  N/A         68  42  39  CALM    N/A
#KITTITAS 3S    N/A         58  52  80  CALM    29.72S
#THORP 6N       N/A         71  43  36  N16G24  29.73F
$$

WAZ027-031110-
YAKIMA VALLEY

CITY            SKY/WX      TMP DP  RH  WIND    PRES   REMARKS
SUNNYSIDE AP    PTCLDY      60  53  78  CALM    29.76S
YAKIMA AIRPORT  PTCLDY      70  48  46  VRB5    29.78F
#DONALD 2NE     N/A         82  10   6  S1      28.61F
#GRANDVIEW      N/A         66  52  61  CALM    29.72S
#MABTON         N/A         67  54  63  CALM    29.74F
#MOXEE 2E       N/A         73  28  19  N1      29.73F
#NACHES 2SW     N/A         75  45  34  W10     29.84S
#OUTLOOK DOT    N/A         N/A N/A N/A N2      N/A
#SELAH 8E       N/A         68  32  26  SE5     N/A
#TERRACE HTS    N/A         76  40  27  CALM    29.66F
#TOPPENISH      N/A         76  50  40  W5      29.62F
#WAPATO 4NE     N/A         82  10   6  S1      28.61F
#WEST VALLEY    N/A         76  45  33  W2      29.69F
#W YAKIMA       N/A         76  44  32  NW1     29.70F
#WHITE SWAN 5E  N/A         65  50  58  CALM    29.71F
$$

WAZ028-031110-
LOWER COLUMBIA BASIN...WASHINGTON

CITY            SKY/WX      TMP DP  RH  WIND    PRES   REMARKS
PASCO           MOCLDY      71  53  53  E6      29.73S
RICHLAND AWOS   MOCLDY      70  57  63  CALM    29.72S
#BASIN CITY 5SW N/A         66  53  63  CALM    29.72S
#BENTON CITY    N/A         72  53  51  NW3     29.60S
#CONNELL 5N     N/A         67  49  52  CALM    29.67S
#CONNELL 5NW    N/A         68  52  57  CALM    29.65S
#ELTOPIA 6NW    N/A         74  51  44  CALM    28.71F
#KAHLOTUS       N/A         74  44  34  W2      29.68S
#KENNEWICK      N/A         68  44  42  S2      27.51S
#KENNEWICK 3S   N/A         77  47  35  N1      29.69F
#PASCO-BROADMOORN/A         75  51  43  E1      29.60S
#PATERSON       N/A         71  52  51  E2      29.70S
#PROSSER        N/A         78  41  27  SW2     29.69F
#SAGEMOOR 2W    N/A         69  51  53  E1      29.54F
#TOUCHET 2S     N/A         66  48  52  CALM    29.70R
#WEST PASCO     N/A         72  51  48  CALM    29.67S
$$

WAZ029-031110-
FOOTHILLS OF THE BLUES...WASHINGTON

CITY            SKY/WX      TMP DP  RH  WIND    PRES   REMARKS
WALLA WALLA AP  PTCLDY      79  40  25  S6      29.77F
#DAYTON SCHOOL  N/A         66  32  28  CALM    29.80S
#LOWDEN 2SE     N/A         62  48  60  CALM    29.71S
#PLEASANT VIEW 1N/A         72  37  28  SW7     29.70S
#PRESCOTT       N/A         56  42  59  CALM    29.70S
#SUDBURY        N/A         60  N/A N/A CALM    N/A
#WHITMAN COLLEGEN/A         78  44  30  CALM    29.74F
#WAITSBURG 8N   N/A         66  17  15  CALM    29.62S
#WALLA WALLA U  N/A         75  46  36  CALM    29.70S
$$

WAZ030-031110-
BLUE MOUNTAINS...WASHINGTON

CITY            SKY/WX      TMP DP  RH  WIND    PRES   REMARKS
$$

ORZ009-041-WAZ024-031110-
COLUMBIA RIVER GORGE

CITY            SKY/WX      TMP DP  RH  WIND    PRES   REMARKS
HOOD RIVER AP   MOCLDY      66  54  65  CALM    29.84S
THE DALLES AP   PTCLDY      76  54  46  NW13    29.77S
#ARLINGTON AIRPON/A         75  50  41  W10     N/A
#MOSIER 1S      N/A         72  42  34  NW8     29.84S
#MURDOCK        N/A         78  56  47  N20G38  29.76F

$$

ORZ510-031110-
NORTH CENTRAL OREGON

CITY            SKY/WX      TMP DP  RH  WIND    PRES   REMARKS
#CHENOWITH 1W   N/A         70  51  51  W29     N/A
#DUFUR 9E       N/A         71  46  41  W3      29.76F
#GRASS VALLEY 1SN/A         66  39  37  S7      29.75S
#MAUPIN SCHOOL  N/A         74  41  30  W1      29.83S
#MORO SCHOOL    N/A         73  53  49  W14     29.84F
#SHANIKO 4NW    N/A         72  36  27  SW2     29.97R
#TYGH VALLEY 2NEN/A         69  40  35  CALM    29.74S
#WAPANITIA AIRPON/A         74  41  30  W6      29.75R
#WASCO 5NE      N/A         71  51  49  CALM    29.71F
$$

ORZ511-031110-
CENTRAL OREGON

CITY            SKY/WX      TMP DP  RH  WIND    PRES   REMARKS
BEND AIRPORT    CLOUDY      73  48  41  SW9     29.98F
MADRAS AIRPORT  MOCLDY      68  41  37  S6      29.94R
PRINEVILLE AP   CLOUDY      73  48  41  W7      29.96S
REDMOND AIRPORT CLOUDY      72  45  38  SW5     29.95F
#BEND 1SW       N/A         70  51  51  SW1     N/A
#BEND-AWBREY    N/A         72  51  48  SW5     29.75F
#BEND-KIM LN    N/A         72  52  49  SW3     29.96F
#CULVER         N/A         69  46  44  CALM    29.89S
#LAKE BILLY CHINN/A         73   5   7  CALM    29.96R
#POWELL BUTTE 3EN/A         71  48  44  W2      N/A
#POWELL BUTTE   N/A         74  48  40  SW8     29.61S
#PRINEVILLE 3N  N/A         65  53  65  NW2     29.74S
#WARM SPRINGS   N/A         69  45  42  CALM    29.85R

$$


ORZ509-031110-
EAST SLOPES OF OREGON CASCADES

CITY            SKY/WX      TMP DP  RH  WIND    PRES   REMARKS
#CAMP SHERMAN   N/A         69  42  37  CALM    29.73R
#LA PINE 4NW    N/A         65  51  60  CALM    29.82F
#SISTERS AIRPOR N/A         71  52  51  CALM    30.17S
#SISTERS 3N     N/A         66  42  42  CALM    30.16S
#SUNRIVER       N/A         67  51  56  CALM    29.67F

$$

ORZ044-031110-
LOWER COLUMBIA BASIN...OREGON

CITY            SKY/WX      TMP DP  RH  WIND    PRES   REMARKS
HERMISTON       PTCLDY      66  50  56  CALM    29.75S
#BOARDMAN SCHOOLN/A         74  48  40  S5      29.74S
#BOARDMAN 8SW   N/A         72  51  48  SW8     29.70S
#ECHO 8SW       N/A         76  41  28  SW5     29.76F
#IONE SCHOOL    N/A         70  41  35  CALM    29.76F
#IRRIGON 4NW    N/A         70  57  63  E6      N/A
#UMATILLA       N/A         69  50  51  CALM    29.66S
$$

ORZ507-031110-
NORTHERN FOOTHILLS OF THE BLUES

CITY            SKY/WX      TMP DP  RH  WIND    PRES   REMARKS
PENDLETON AIRPT MOCLDY      70  36  29  SE6     29.81R
#ADAMS 3WNW     N/A         58  31  36  CALM    29.72S
#ATHENA         N/A         62  40  44  CALM    29.75R
#CAYUSE         N/A         71  41  34  E1      29.71R
#HELIX SCHOOL   N/A         60  36  41  CALM    29.72S
#HELIX 3N       N/A         70  37  30  CALM    29.80S
#HELIX 6SW      N/A         64  37  37  NE3     29.81
#HOLDMAN 6E     N/A         72  41  33  CALM    29.53S
#M-F GROVE ELEM N/A         74  37  26  S2      29.78S
#M-FREEWATER 5SEN/A         72  42  34  NE3     29.80S
#PENDLETON DNTN N/A         66  30  26  E2      N/A
#PDT AQUATIC CTRN/A         65  32  29  E3      29.80R
#PDT SUNRIDGE   N/A         65  39  38  CALM    29.81S
#PENDLETON 7NW  N/A         65  41  41  CALM    31.96S
#PILOT ROCK     N/A         69  38  32  S1      29.85S
#TUTUILLA       N/A         66  41  40  CALM    29.76S
#UMAPINE 2E     N/A         75  48  38  W1      29.72S
#WESTON SCHOOL  N/A         74  37  26  W2      29.71R

$$

ORZ508-031110-
SOUTHERN FOOTHILLS OF THE BLUES

CITY            SKY/WX      TMP DP  RH  WIND    PRES   REMARKS
#AJAX           N/A         75  34  22  SW1     29.81S
#CONDON SCHOOL  N/A         71  37  29  S2      29.86F
#CONDON 5W      N/A         72  35  26  W10     29.88F
#FOSSIL SCHOOL  N/A         64  36  35  CALM    29.86S
#HEPPNER EOC    N/A         69  40  35  E3      29.65F
#HEPPNER 4NE    N/A         71  37  29  CALM    29.69F
#LEXINGTON 2SE  N/A         69  42  37  SE8     29.77F
#OLEX 4N        N/A         73  43  34  W9      29.77F
#RUGGS 5NE      N/A         66  31  27  N1      30.07S
#RUGGS 2SW      N/A         71  37  29  SW7     29.71F

$$

ORZ502-503-031110-
BLUE MOUNTAINS

CITY            SKY/WX      TMP DP  RH  WIND    PRES   REMARKS
MEACHAM         MOCLDY      52  37  56  CALM    29.95F
#HEPPNER 15SE   N/A         61  40  46  CALM    29.88F
#LONG CREEK HS  N/A         59  36  42  CALM    29.91S
#PIKES PEAK     N/A         75  39  27  S13     27.99S
#TOLLGATE       N/A         61  35  38  CALM    29.89S
#TROY SCHOOL    N/A         63  43  48  CALM    29.57S
#UKIAH          N/A         55  40  57  CALM    29.80F
$$

ORZ505-031110-
JOHN DAY BASIN

CITY            SKY/WX      TMP DP  RH  WIND    PRES   REMARKS
JOHN DAY        CLOUDY      72  37  28  SW5     29.96S
#JOHN DAY KJDY  N/A         67  59  75  CALM    30.03R
#DAYVILLE SCHOOLN/A         76  34  22  CALM    29.88R
#MITCHELL       N/A         69  42  37  CALM    30.10S
#MONUMENT HS    N/A         64  47  54  CALM    29.88S
#MT. VERNON 5SE N/A         70  38  31  CALM    29.93S
#WINLOCK        N/A         68  36  31  CALM    30.00S
$$

ORZ506-031110-
OCHOCO AND JOHN DAY HIGHLANDS

CITY            SKY/WX      TMP DP  RH  WIND    PRES   REMARKS
#PINE MTN OBS   N/A         65  41  41  CALM    N/A
#PRAIRIE CITY   N/A         60  43  53  CALM    29.88R
#SENECA         N/A         65  N/A N/A CALM    N/A
#SENECA 9NW     N/A         66  35  32  CALM    29.69S
$$

ORZ049-031110-
GRANDE RONDE VALLEY

CITY            SKY/WX      TMP DP  RH  WIND    PRES   REMARKS
LA GRANDE       CLOUDY      75  36  24  NW13    29.85S
#COVE           N/A         66  42  42  E2      29.90R
#COVE SCHOOL    N/A         66  40  38  CALM    29.90R
#COVE 6NW       N/A         71  39  31  W3      29.75S
#ELGIN 3N       N/A         62  36  38  CALM    29.86R
#ELGIN 1E       N/A         63  41  44  CALM    N/A
#ISLAND CITY 4N N/A         65  57  75  CALM    29.88S
#UNION 1S       N/A         75  41  29  N5      29.60S
$$

ORZ050-031110-
WALLOWA COUNTY

CITY            SKY/WX      TMP DP  RH  WIND    PRES   REMARKS
JOSEPH AIRPORT  CLOUDY      66  30  26  S5      29.96S
#ENTERPRISE HS  N/A         56  44  64  CALM    29.94S
#IMNAHA SCHOOL  N/A         72  35  26  S2      29.82R
#IMNAHA 10S     N/A         69  33  26  SW7     29.88R
#JOSEPH 3N      N/A         53  40  61  CALM    29.96S
#JOSEPH 3W      N/A         69  27  21  SW2     29.83F
#LOSTINE        N/A         60  41  49  CALM    29.53R
#MT HOWARD 8000 N/A         63  N/A N/A NE5     30.25S
#PROMISE 1S     N/A         66  34  30  E1      29.85R
#WALLOWA SCHOOL N/A         57  45  64  CALM    29.86S



$$



USA.gov is the U.S. government's official web portal to all federal, state and local government web resources and services.